Frankfort, MI

12:19 AM EST on December 16, 2019 (GMT -0500)
Frankfort

Weather History for KFKS - October, 2019

Change the Weather History Date:

Sunday, October 20, 2019

  Actual Average (KMBL) Record (KMBL)
Temperature  
Mean Temperature 49 °F -  
Max Temperature 57 °F 55 °F 79 °F (1953)
Min Temperature 41 °F 38 °F 23 °F (1992)
Degree Days  
Heating Degree Days 16    
Moisture  
Dew Point 45 °F    
Average Humidity 76    
Maximum Humidity 89    
Minimum Humidity 56    
Precipitation  
Precipitation 0.00 in - - ()
Sea Level Pressure  
Sea Level Pressure 29.87 in    
Wind  
Wind Speed 2 mph (West)    
Max Wind Speed 8 mph    
Max Gust Speed -    
Visibility 9 miles    
Events Fog , Rain    
Averages and records for this station are not official NWS values.
T = Trace of Precipitation, MM = Missing Value Source: NWS Daily Summary

Daily Weather History Graph

Daily Weather History Graph

Search for Another Location

Airport or City:

Astronomy

Oct. 20, 2019 Rise Set
Actual Time 8:06 AM EDT 6:52 PM EDT
Civil Twilight 7:36 AM EDT 7:21 PM EDT
Nautical Twilight 7:02 AM EDT 7:55 PM EDT
Astronomical Twilight 6:28 AM EDT 8:29 PM EDT
Moon 11:50 PM EDT (10/20) 2:43 PM EDT (10/20)
Length of Visible Light 11h 45m
Length of Day
10h 45m
Waning Gibbous, 59% of the Moon is Illuminated
Oct 20
Waning Gibbous
Oct 21
Last Quarter
Oct 27
New
Nov 4
First Quarter
Nov 12
Full

Hourly Weather History & Observations

Time (EDT) Temp. Dew Point Humidity Pressure Visibility Wind Dir Wind Speed Gust Speed Precip Events Conditions
12:15 AM 57.4 °F 41.9 °F 56% 29.74 in 10.0 mi SE 3.5 mph - N/A   Overcast
12:16 AM 57.4 °F 41.9 °F 56% 29.74 in 10.0 mi SE 3.5 mph - N/A   Overcast
12:35 AM 57.4 °F 41.9 °F 56% 29.74 in 10.0 mi Calm Calm - N/A   Overcast
12:36 AM 57.4 °F 41.9 °F 56% 29.74 in 10.0 mi SE 3.5 mph - N/A   Overcast
12:59 AM 57.4 °F 42.1 °F 57% 29.74 in 10.0 mi SE 4.6 mph - N/A   Overcast
1:17 AM 57.2 °F 42.1 °F 57% 29.74 in 10.0 mi Calm Calm - N/A   Mostly Cloudy
1:35 AM 55.8 °F 43.2 °F 63% 29.75 in 10.0 mi Calm Calm - N/A   Overcast
1:55 AM 57.4 °F 43.0 °F 59% 29.75 in 10.0 mi Calm Calm - N/A   Overcast
1:56 AM 57.2 °F 43.0 °F 59% 29.74 in 10.0 mi Calm Calm - N/A   Overcast
2:15 AM 57.2 °F 43.9 °F 61% 29.75 in 10.0 mi Calm Calm - N/A   Overcast
2:20 AM 57.0 °F 44.1 °F 62% 29.75 in 10.0 mi Calm Calm - N/A   Overcast
2:38 AM 56.8 °F 45.3 °F 65% 29.75 in 10.0 mi Calm Calm - N/A   Overcast
2:56 AM 57.2 °F 48.4 °F 72% 29.75 in 10.0 mi Calm Calm - N/A Rain Light Rain
3:15 AM 57.0 °F 48.4 °F 73% 29.75 in 10.0 mi Calm Calm - N/A   Overcast
3:36 AM 55.4 °F 48.2 °F 77% 29.75 in 10.0 mi ESE 4.6 mph - N/A   Overcast
3:59 AM 54.9 °F 46.8 °F 74% 29.76 in 10.0 mi Calm Calm - N/A   Overcast
4:17 AM 55.4 °F 46.2 °F 71% 29.75 in 10.0 mi Calm Calm - N/A   Overcast
4:35 AM 54.1 °F 46.6 °F 76% 29.75 in 10.0 mi Calm Calm - N/A   Overcast
4:55 AM 54.1 °F 46.8 °F 76% 29.76 in 10.0 mi Calm Calm - N/A   Overcast
5:15 AM 53.6 °F 46.2 °F 76% 29.77 in 10.0 mi Calm Calm - N/A   Overcast
5:20 AM 53.8 °F 46.0 °F 75% 29.77 in 10.0 mi Calm Calm - N/A   Overcast
5:38 AM 53.6 °F 46.6 °F 77% 29.77 in 10.0 mi Calm Calm - N/A   Overcast
5:56 AM 53.1 °F 46.8 °F 79% 29.78 in 10.0 mi Calm Calm - N/A   Overcast
6:15 AM 53.1 °F 46.9 °F 80% 29.79 in 10.0 mi Calm Calm - N/A   Overcast
6:16 AM 53.1 °F 47.1 °F 80% 29.79 in 10.0 mi Calm Calm - N/A   Overcast
6:35 AM 52.9 °F 46.9 °F 80% 29.80 in 10.0 mi Calm Calm - N/A   Overcast
6:59 AM 54.7 °F 49.1 °F 81% 29.80 in 10.0 mi NW 3.5 mph - N/A   Overcast
7:16 AM 55.4 °F 49.5 °F 80% 29.81 in 10.0 mi WNW 6.9 mph - N/A   Overcast
7:35 AM 55.4 °F 49.1 °F 79% 29.82 in 10.0 mi NW 4.6 mph - N/A   Overcast
7:36 AM 55.4 °F 49.1 °F 79% 29.82 in 10.0 mi NW 4.6 mph - N/A   Overcast
7:55 AM 54.9 °F 48.2 °F 78% 29.82 in 10.0 mi West 5.8 mph - N/A   Overcast
7:56 AM 54.9 °F 48.2 °F 78% 29.82 in 10.0 mi West 6.9 mph - N/A   Overcast
8:15 AM 54.5 °F 47.8 °F 78% 29.83 in 10.0 mi West 4.6 mph - N/A   Overcast
8:20 AM 54.5 °F 47.7 °F 78% 29.83 in 10.0 mi West 8.1 mph - N/A   Overcast
8:38 AM 54.0 °F 47.3 °F 78% 29.84 in 10.0 mi Calm Calm - N/A   Overcast
8:56 AM 53.8 °F 46.9 °F 78% 29.84 in 10.0 mi NW 5.8 mph - N/A   Overcast
9:15 AM 53.6 °F 46.2 °F 76% 29.84 in 10.0 mi Calm Calm - N/A   Overcast
9:35 AM 53.6 °F 46.4 °F 77% 29.86 in 10.0 mi NNW 3.5 mph - N/A   Overcast
9:36 AM 53.6 °F 46.4 °F 77% 29.86 in 10.0 mi NNW 3.5 mph - N/A   Overcast
9:59 AM 54.0 °F 46.2 °F 75% 29.87 in 10.0 mi Calm Calm - N/A   Overcast
10:17 AM 54.5 °F 45.9 °F 73% 29.88 in 10.0 mi NW 4.6 mph - N/A   Overcast
10:35 AM 54.9 °F 46.4 °F 73% 29.89 in 10.0 mi NW 4.6 mph - N/A   Overcast
11:15 AM 55.4 °F 46.4 °F 72% 29.91 in 10.0 mi WNW 3.5 mph - N/A   Overcast
11:38 AM 55.6 °F 46.4 °F 71% 29.91 in 10.0 mi WNW 4.6 mph - N/A   Overcast
11:56 AM 55.6 °F 46.6 °F 72% 29.92 in 10.0 mi West 4.6 mph - N/A   Overcast
12:15 PM 54.9 °F 46.2 °F 73% 29.92 in 10.0 mi West 4.6 mph - N/A   Overcast
12:35 PM 55.0 °F 46.0 °F 72% 29.92 in 10.0 mi SSW 3.5 mph - N/A   Overcast
12:59 PM 54.7 °F 46.2 °F 73% 29.92 in 10.0 mi Calm Calm - N/A   Overcast
1:17 PM 55.2 °F 46.2 °F 72% 29.92 in 10.0 mi West 4.6 mph - N/A   Overcast
1:35 PM 55.2 °F 46.4 °F 72% 29.93 in 10.0 mi SW 8.1 mph - N/A   Overcast
1:55 PM 55.0 °F 46.2 °F 72% 29.93 in 10.0 mi West 4.6 mph - N/A   Overcast
2:15 PM 54.5 °F 46.0 °F 73% 29.92 in 10.0 mi West 4.6 mph - N/A   Overcast
2:38 PM 54.3 °F 46.2 °F 74% 29.91 in 10.0 mi West 6.9 mph - N/A   Overcast
2:56 PM 54.3 °F 45.7 °F 73% 29.92 in 10.0 mi West 4.6 mph - N/A   Overcast
3:15 PM 54.5 °F 45.7 °F 72% 29.92 in 10.0 mi West 6.9 mph - N/A   Overcast
3:35 PM 53.2 °F 45.7 °F 76% 29.93 in 10.0 mi Calm Calm - N/A   Overcast
3:59 PM 54.0 °F 46.0 °F 75% 29.93 in 10.0 mi West 4.6 mph - N/A   Overcast
4:17 PM 53.1 °F 45.5 °F 75% 29.93 in 10.0 mi Calm Calm - N/A   Mostly Cloudy
4:35 PM 53.4 °F 46.0 °F 76% 29.94 in 10.0 mi West 3.5 mph - N/A   Mostly Cloudy
4:55 PM 53.2 °F 45.9 °F 76% 29.94 in 10.0 mi Calm Calm - N/A   Overcast
5:15 PM 52.9 °F 45.5 °F 76% 29.94 in 10.0 mi West 3.5 mph - N/A   Scattered Clouds
5:20 PM 52.3 °F 45.3 °F 77% 29.94 in 10.0 mi West 3.5 mph - N/A   Scattered Clouds
5:38 PM 52.2 °F 45.7 °F 79% 29.95 in 10.0 mi West 3.5 mph - N/A   Scattered Clouds
5:56 PM 52.2 °F 45.9 °F 79% 29.95 in 10.0 mi Calm Calm - N/A   Overcast
6:15 PM 51.3 °F 45.5 °F 81% 29.96 in 10.0 mi Calm Calm - N/A   Overcast
6:35 PM 51.8 °F 45.3 °F 79% 29.96 in 10.0 mi Calm Calm - N/A   Overcast
6:36 PM 51.6 °F 45.1 °F 79% 29.96 in 10.0 mi Calm Calm - N/A   Overcast
6:59 PM 49.1 °F 43.7 °F 82% 29.96 in 7.0 mi Calm Calm - N/A   Scattered Clouds
7:17 PM 46.9 °F 42.1 °F 83% 29.96 in 7.0 mi Calm Calm - N/A   Clear
7:35 PM 46.4 °F 42.1 °F 85% 29.95 in 5.0 mi Calm Calm - N/A   Clear
7:55 PM 43.7 °F 39.2 °F 84% 29.96 in 5.0 mi Calm Calm - N/A   Haze
8:15 PM 43.3 °F 39.0 °F 85% 29.96 in 4.0 mi Calm Calm - N/A   Clear
8:20 PM 42.8 °F 38.3 °F 84% 29.96 in 4.0 mi Calm Calm - N/A   Haze
8:38 PM 43.5 °F 39.4 °F 85% 29.96 in 5.0 mi Calm Calm - N/A   Haze
8:56 PM 43.0 °F 38.7 °F 85% 29.96 in 3.0 mi Calm Calm - N/A   Mostly Cloudy
9:15 PM 42.3 °F 37.8 °F 84% 29.96 in 2.5 mi Calm Calm - N/A   Overcast
9:16 PM 42.1 °F 37.8 °F 85% 29.96 in 2.5 mi Calm Calm - N/A   Overcast
9:35 PM 42.1 °F 37.8 °F 85% 29.96 in 0.2 mi Calm Calm - N/A Fog Fog
9:36 PM 41.9 °F 37.6 °F 85% 29.96 in 0.2 mi Calm Calm - N/A Fog Fog
9:59 PM 42.4 °F 38.3 °F 85% 29.96 in 3.0 mi Calm Calm - N/A   Clear
10:17 PM 43.5 °F 39.7 °F 87% 29.97 in 5.0 mi Calm Calm - N/A   Clear
10:35 PM 43.3 °F 39.7 °F 87% 29.98 in 4.0 mi Calm Calm - N/A   Clear
10:55 PM 45.5 °F 42.3 °F 88% 29.98 in 5.0 mi Calm Calm - N/A   Clear
10:56 PM 45.7 °F 42.4 °F 88% 29.98 in 5.0 mi Calm Calm - N/A   Clear
11:15 PM 47.5 °F 44.2 °F 89% 29.97 in 7.0 mi Calm Calm - N/A   Clear
11:20 PM 46.2 °F 42.6 °F 87% 29.97 in 7.0 mi Calm Calm - N/A   Clear
11:38 PM 49.5 °F 46.0 °F 88% 29.98 in 10.0 mi East 3.5 mph - N/A   Clear
11:56 PM 50.9 °F 47.3 °F 87% 29.96 in 10.0 mi East 5.8 mph - N/A   Clear